Weather History for Sault Ste Marie, MI

Change the Weather History Date:

Friday, September 7, 2012

  Actual Average Record
Temperature  
Mean Temperature 58 °F 60 °F  
Max Temperature 64 °F 70 °F 89 °F (1960)
Min Temperature 52 °F 51 °F 35 °F (1986)
Degree Days  
Heating Degree Days 7 6  
Month to date heating degree days 10 36  
Since 1 July heating degree days 51 183  
Cooling Degree Days 0 1  
Month to date cooling degree days 18 7  
Year to date cooling degree days 397 185  
Growing Degree Days 10 (Base 50)    
Moisture  
Dew Point 54 °F    
Average Humidity 83    
Maximum Humidity 93    
Minimum Humidity 72    
Precipitation  
Precipitation 0.06 in 0.12 in 1.48 in (1959)
Month to date precipitation 0.29 0.82  
Year to date precipitation 17.44 19.99  
Sea Level Pressure  
Sea Level Pressure 29.83 in    
Wind  
Wind Speed 4 mph (West)    
Max Wind Speed 13 mph    
Max Gust Speed 17 mph    
Visibility 10 miles    
Events Rain    
T = Trace of Precipitation, MM = Missing Value Source: NWS Daily Summary

Daily Weather History Graph

Daily Weather History Graph

Search for Another Location

Airport:

Trip Planner

Search our weather history database for the weather conditions in past years. The results will help you decide how hot, cold, wet, or windy it might be!

Date:

Astronomy

Sep. 07, 2012 Rise Set
Actual Time 7:05 AM EDT 8:03 PM EDT
Civil Twilight 6:35 AM EDT 8:34 PM EDT
Nautical Twilight 5:58 AM EDT 9:11 PM EDT
Astronomical Twilight 5:19 AM EDT 9:49 PM EDT
Moon 11:32 PM EDT (9/7) 2:22 PM EDT (9/7)
Length of Visible Light 13h 59m
Length of Day
12h 58m
Waning Gibbous, 58% of the Moon is Illuminated
Sep 7
Waning Gibbous
Sep 8
Last Quarter
Sep 15
New
Sep 22
First Quarter
Sep 29
Full

Hourly Weather History & Observations

Time (EDT) Temp. Dew Point Humidity Pressure Visibility Wind Dir Wind Speed Gust Speed Precip Events Conditions
12:55 AM 59.0 °F 54.0 °F 83% 29.87 in 10.0 mi WNW 3.5 mph - N/A   Mostly Cloudy
1:55 AM 59.0 °F 55.0 °F 87% 29.87 in 10.0 mi West 3.5 mph - 0.04 in   Overcast
2:55 AM 57.9 °F 54.0 °F 87% 29.86 in 10.0 mi South 3.5 mph - N/A   Partly Cloudy
3:55 AM 57.9 °F 55.0 °F 90% 29.85 in 10.0 mi Calm Calm - N/A   Overcast
4:55 AM 57.9 °F 54.0 °F 87% 29.84 in 10.0 mi NW 3.5 mph - 0.00 in   Overcast
5:55 AM 59.0 °F 54.0 °F 83% 29.85 in 10.0 mi West 3.5 mph - 0.00 in Rain Light Rain
6:55 AM 61.0 °F 55.9 °F 83% 29.86 in 10.0 mi West 5.8 mph - 0.00 in   Overcast
7:55 AM 59.0 °F 55.9 °F 90% 29.85 in 10.0 mi Calm Calm - 0.02 in   Mostly Cloudy
8:55 AM 60.1 °F 55.9 °F 86% 29.86 in 10.0 mi West 4.6 mph - N/A   Mostly Cloudy
9:55 AM 62.1 °F 55.0 °F 78% 29.85 in 10.0 mi West 4.6 mph - N/A   Overcast
10:55 AM 63.0 °F 55.9 °F 78% 29.87 in 10.0 mi SW 8.1 mph - N/A   Mostly Cloudy
11:55 AM 63.0 °F 55.9 °F 78% 29.85 in 10.0 mi SW 6.9 mph - N/A   Scattered Clouds
12:35 PM 62.1 °F 55.9 °F 80% 29.86 in 10.0 mi SW 8.1 mph - 0.00 in Rain Light Rain
12:55 PM 61.0 °F 55.9 °F 83% 29.86 in 10.0 mi SW 11.5 mph - 0.00 in   Overcast
1:07 PM 61.0 °F 55.9 °F 83% 29.85 in 10.0 mi SSW 10.4 mph - N/A   Overcast
1:55 PM 62.1 °F 55.9 °F 80% 29.83 in 10.0 mi SW 8.1 mph - N/A   Scattered Clouds
2:04 PM 62.1 °F 55.9 °F 80% 29.84 in 10.0 mi SW 6.9 mph - N/A   Mostly Cloudy
2:34 PM 62.1 °F 55.9 °F 80% 29.82 in 10.0 mi WSW 5.8 mph - N/A   Overcast
2:55 PM 62.1 °F 55.9 °F 80% 29.82 in 10.0 mi West 5.8 mph - N/A   Overcast
3:24 PM 62.1 °F 55.0 °F 78% 29.82 in 10.0 mi WNW 9.2 mph - N/A   Overcast
3:39 PM 62.1 °F 50.0 °F 65% 29.81 in 10.0 mi NW 4.6 mph - N/A   Overcast
3:55 PM 61.0 °F 50.0 °F 67% 29.81 in 10.0 mi Calm Calm - 0.00 in Rain Light Rain
4:55 PM 61.0 °F 51.1 °F 70% 29.79 in 10.0 mi West 3.5 mph - 0.00 in   Overcast
5:55 PM 61.0 °F 53.1 °F 75% 29.78 in 10.0 mi Calm Calm - N/A   Overcast
6:55 PM 60.1 °F 54.0 °F 80% 29.79 in 10.0 mi WSW 3.5 mph - N/A   Overcast
7:55 PM 59.0 °F 55.0 °F 87% 29.79 in 10.0 mi WSW 3.5 mph - 0.00 in   Overcast
8:55 PM 60.1 °F 52.0 °F 75% 29.80 in 10.0 mi West 4.6 mph - N/A   Overcast
9:55 PM 59.0 °F 52.0 °F 78% 29.78 in 10.0 mi NNW 3.5 mph - N/A   Mostly Cloudy
10:55 PM 57.0 °F 50.0 °F 77% 29.76 in 10.0 mi Calm Calm - N/A   Partly Cloudy
11:55 PM 57.0 °F 50.0 °F 77% 29.75 in 10.0 mi WNW 3.5 mph - N/A   Clear